Showing default

METEOR M2, 40069

Orbit data source: Space-Track

METEOR M2, 40069 is a Commonwealth of Independent States-origin payload satellite in SSO that was launched on Tue, 08 Jul 2014 UTC via a SOYUZ-2-1B launch vehicle from the Tyuratam Missile And Space Complex (TTMTR). Payload-class satellites include a variety of spacecraft equipped with specific instruments for various scientific and technological missions. These include communications satellites like Starlink; space stations such as the ISS; scientific satellites like the Hubble; Earth observation satellites from companies like Planet Labs, Umbra, and HawkEye 360; GPS; miniature CubeSats for education and research; and military/defense satellites.

Loading next visibility...
Identifier
40069, 2014-037A
Orbit
SSO
Last TLE update
4 hours ago
Origin
Manufacturer
VNIIEM
Mission
Partially operational Civil Weather
Bus & Motor
RESURS-O, Unknown motor
Mass
2,879 kg wet, ~2,600 kg dry
Launch date (UTC)
2014-07-08 (11 years ago)
Launch vehicle
SOYUZ-2-1B
Launch site
Tyuratam Missile And Space Complex (TTMTR)
Object type
Payload
Rocket body
Debris
Shape & HBR
Cyl + 2 Pan, 14 m
Radar Cross Section
26.744 m², Large (>1 m²)

Expand to show TLE details & history

TLE from 4 hours ago
0 METEOR M2
1 40069U 14037A   25129.22269624  .00000189  00000-0  10595-3 0  9997
2 40069  98.4667 115.4474 0006733 123.6235 236.5586 14.21286754561937
Epoch: 2025-05-09T05:20Z
Definitive object data (Epoch: 2025-05-09T05:20:40.955Z)
Latitude
-0.00002°
Longitude
167.99483°
Altitude
826.602 km
Speed
7.438 km/s
True Right ascension
07h 41m 47s
True Declination
0° 00' 00"
Sunlit
Object was in daylight at TLE epoch
Visualization TLE readout
Latitude
5.47862°
Longitude
-11.02381°
Altitude
820.348 km
Speed
7.445 km/s
Apparent Right ascension
22h 27m 11s
Apparent Declination
-41° 01' 56"
Sunlit
Object is in daylight
Visualization observer readout
Local Sidereal Time
17:41:48
Azimuth
132.649° SE
Elevation
-13.661°
Doppler factor
1
Orbital elements
Apogee altitude
822.995 km
Perigee altitude
813.305 km
Semi-major axis
7,196.287 km
Eccentricity
0.0006733
Inclination
98.4667°
RAAN
115.4474°
Arg. of periapsis
123.6235°
True anomaly
236.49425°
Mean anomaly
236.5586°
Eccentric anomaly
236.52642°
Mean motion
3.55533 °/min
BSTAR
0.00010595
Orbital period
101.26 mins
Loading maneuver chart data...
Loading SW <> Apogee altitude chart data...
Loading historical data...
Loading historical data...
Loading historical data...
Loading historical data...
Loading historical data...
Loading historical data...
Loading historical data...

METEOR M2 Visibility forecast

Observer location: undefined°, undefined°

Span
Click to sort rows by Start time (UTC) header in descending order
Start Az.
Max El. time (UTC)
Max El. Az.
Max El.
End time (UTC)
End Az.
8 mins2025-05-09 11:00:27.997Z40.348° NE2025-05-09 11:04:27.997Z93.298° ESE24.297°2025-05-09 11:08:27.997Z148.439° SSE
8 mins2025-05-09 12:41:27.997Z346.748° N2025-05-09 12:44:27.997Z297.568° NW30.757°2025-05-09 12:49:27.997Z225.987° WSW
8 mins2025-05-09 22:22:27.997Z133.13° SE2025-05-09 22:26:27.997Z67.557° E33.118°2025-05-09 22:30:27.997Z5.669° NNE
7 mins2025-05-10 00:03:27.997Z221.143° SW2025-05-10 00:06:27.997Z263.011° W22.356°2025-05-10 00:10:27.997Z316.212° NNW
|